Location: Akdamlar
(36.8729°N, 30.5187°E)
Time: 14:38:15
(UTC+00:00)

Cosmos 1939 Rocket - Pass Details

Date: 18 September 2020
Orbit: 531 x 585 km, 97.4° (Epoch: 19 October)

Event Time Altitude Azimuth Distance (km) Brightness Sun altitude
Rises 16:27:48 0° 174° (S) 2,768 6.3 -6.3°
Reaches altitude 10° 16:29:56 10° 178° (S) 1,881 5.5 -6.7°
Maximum altitude 16:33:59 63° 259° (W) 650 3.5 -7.5°
Drops below altitude 10° 16:38:07 10° 342° (NNW) 1,912 5.9 -8.3°
Sets 16:40:18 0° 345° (NNW) 2,818 6.8 -8.8°
